Location: Unspecified
(43.3830°N, 0.0000°E)
Time: 18:37:16
(UTC+00:00)

Vanguard 2 - Pass Details

Date: 22 June 2019
Orbit: 554 x 2938 km, 32.9° (Epoch: 24 August)

Event Time Altitude Azimuth Distance (km) Brightness Sun altitude
Rises 09:58:21 0° 250° (WSW) 3,458 10.7 57.7°
Reaches altitude 10° 10:00:36 10° 242° (WSW) 2,740 10.3 58.1°
Maximum altitude 10:06:52 41° 174° (S) 1,859 10.5 59.1°
Drops below altitude 10° 10:16:55 10° 110° (ESE) 4,385 12.0 60.6°
Sets 10:21:32 0° 104° (ESE) 5,778 12.4 61.3°
